Regional Weather Roundup
Issued by NWS Newport/Morehead, NC

Current Version | Previous Version | Text Only | Print | Product List | Glossary On
Versions: 1 2 3 4 5 6 7 8 9 10 11 12 13 14 15 16 17 18 19 20 21 22 23 24 25 26 27 28 29 30 31 32 33 34 35 36 37 38 39 40 41 42 43 44 45 46 47 48 49 50
000
ASUS42 KMHX 231313
RWRMHX
WEATHER ROUNDUP FOR EASTERN NORTH CAROLINA
NATIONAL WEATHER SERVICE NEWPORT/MOREHEAD CITY NC
900 AM EDT SUN APR 23 2017

NOTE: "FAIR" INDICATES FEW OR NO CLOUDS BELOW 12,000 FEET
WITH NO SIGNIFICANT WEATHER AND/OR OBSTRUCTIONS TO VISIBILITY

NCZ015>017-031-032-045>047-102-103-231400-
NORTH COAST

CITY           SKY/WX    TMP DP  RH WIND       PRES   REMARKS
EDENTON        CLOUDY    57  54  87 NE9       30.05R
ELIZABETH CITY CLOUDY    56  54  93 NE13      30.04S
KITTY HAWK     CLOUDY    54  54 100 CALM      30.03R
MANTEO         CLOUDY    55  53  94 NE12G21   30.04R

$$

NCZ045>047-081-094-103-104-231400-
CENTRAL COAST

CITY           SKY/WX    TMP DP  RH WIND       PRES   REMARKS
FRISCO         CLOUDY    58  54  86 NE8G21    30.01R

$$

NCZ095-097-098-100-101-231400-
SOUTHERN COAST

CITY           SKY/WX    TMP DP  RH WIND       PRES   REMARKS
BEAUFORT       CLOUDY    61  61 100 NE12      29.98F
CEDAR ISLAND   NOT AVBL
JACKSONVILLE   CLOUDY    60  58  92 NE10      29.98S
PINEY ISLAND   CLOUDY   N/A N/A N/A NE16G25   29.99S
WILMINGTON     CLOUDY    59  59 100 NE9       29.96R


$$

NCZ011>013-027>030-043-044-078>080-089-090>093-098-231400-
COASTAL PLAIN

CITY           SKY/WX    TMP DP  RH WIND       PRES   REMARKS
AHOSKIE        LGT RAIN  53  51  93 NE5       30.06R
CLINTON        CLOUDY    57  55  95 NE7       30.00R
ELIZABETHTOWN  CLOUDY    58  55  88 E6        29.97S
GOLDSBORO      CLOUDY    57  57 100 NE12      30.00R
GREENVILLE     CLOUDY    55  54  94 NE10G16   30.04S
HAVELOCK       CLOUDY    61  56  83 NE14      30.00R
KENANSVILLE    CLOUDY    57  54  88 NE3       30.00R
KINSTON        LGT RAIN  57  54  88 N3        30.02R
NEW BERN       CLOUDY    58  56  93 E12       30.01R
RICHLANDS      CLOUDY    58  55  90 NE13      29.99S
ROCKY MOUNT    LGT RAIN  54  54 100 NE9       30.04R FOG
WASHINGTON     CLOUDY    55  53  93 NE8       30.03S
WHITEVILLE     NOT AVBL

$$

AMZ130-135-150-152-154-156-158-170-250-252-270-ANZ085-086-088-633-658-670-231400-
MARINE OBSERVATIONS

STATION/POSITION TIME  TEMP    WIND        PRES    WAVE   SWELL
                       AIR SEA DIR/SP/G            HT/PER HT/PER
                 (UTC) (F)     (DEG/KT/KT) (MB)    (FT/S) (FT/S)
CHESAPEAKE LIGHT NOT AVBL
64 E VA BEACH    1250   53 54   30/ 17/ 19 1016.4    6/ 6   3/12
DUCK             1248   55 63   30/ 20/ 23 1016.4
2 E DUCK         1230      61                N/A     6/ 6   2/11
OREGON INLET     1242   55 61   40/ 14/ 19 1016.4
13E OREGON INLT  1248      58                N/A     6/ 6   5/13
HATTERAS CG      1248   58 69   30/ 15/ 20 1016.0
DIAMOND BUOY     1250   62 74   10/ 17/ 21 1015.4    5/ 6   2/11
CAPE LOOKOUT     1200   62      40/ 20/ 22 1015.0
BEAUFORT LAB     1248   60 66   30/ 10/ 14 1014.6
30 SE NEW RVR IN 1208   64      50/ 17/ 21 1014.9
30 SE NEW RVR IN 1243      71                N/A     5/ 4   2/12
27 SE WRIGHTSVLE 1208   66 70   70/ 17/ 25 1013.4
5 SE WRIGHTSVLE  1208   62 68   50/ 14/ 21 1013.9
225 S CAPE HAT   1150   72 74  210/ 10/ 12 1015.4    5/12   3/12
41 SE CHARLESTON 1240   75 74  200/ 10/ 12 1012.1

$$



USA.gov is the U.S. government's official web portal to all federal, state and local government web resources and services.